Regional Weather Roundup
Issued by NWS

Home | Current Version | Previous Version | Text Only | Print | Product List | Glossary On
Versions: 1 2 3 4 5 6 7 8 9 10 11 12 13 14 15 16 17 18 19 20 21 22 23 24 25 26 27 28 29 30 31 32 33 34 35 36 37 38 39 40 41 42 43 44 45 46 47 48 49 50
096
ASUS43 KMKX 240721
RWRWI

WISCONSIN REGIONAL WEATHER ROUNDUP
NATIONAL WEATHER SERVICE MILWAUKEE/SULLIVAN WI
200 AM CDT MON JUL 24 2017

NOTE: "FAIR" INDICATES FEW OR NO CLOUDS BELOW 12,000 FEET WITH NO
SIGNIFICANT WEATHER AND/OR OBSTRUCTIONS TO VISIBILITY.

WIZ001-002-006>008-014>016-023>028-240800-
NORTHWEST WISCONSIN

CITY           SKY/WX    TMP DP  RH WIND       PRES   REMARKS
SUPERIOR ARPT  NOT AVBL
ASHLAND        CLOUDY    54  54 100 CALM      30.07R FOG
HAYWARD        FOG       51  50  96 CALM      30.05S VSB 1/4
SIREN          CLEAR     52  51  95 CALM      30.05S
CUMBERLAND     CLEAR     54  52  94 CALM      30.05R
RICE LAKE      CLEAR     55  54  95 CALM      30.05R
CHETEK         CLEAR     58  56  93 NE3       30.03S
LADYSMITH      CLEAR     55  54  96 NE5       30.05S
EAU CLAIRE     CLEAR     59  56  89 NE3       30.01R
MENOMONIE      CLEAR     59  56  90 N3        30.03R
NEW RICHMOND   CLEAR     56  55  97 CALM      30.04R
OSCEOLA        CLEAR     55  55 100 CALM      30.06S
$$

WIZ003>005-009-010-017-018-240800-
NORTH CENTRAL WISCONSIN

CITY           SKY/WX    TMP DP  RH WIND       PRES   REMARKS
MANITOWISH WTR CLOUDY    54  54 100 N3        30.06R FOG
ARBOR VITAE    PTCLDY    52  51  97 N5        30.04F FOG
WOODRUFF       PTCLDY    52  51  97 N5        30.04F FOG
RHINELANDER    CLEAR     52  52 100 N3        30.04S
EAGLE RIVER    FOG       50  50 100 CALM      30.05R VSB 1/2
LAND O LAKES   FOG       47  47 100 CALM      30.07R VSB 1/2
PHILLIPS       CLEAR     50  50 100 CALM      30.04S
TOMAHAWK         N/A     50  49  96 CALM      30.04S FOG
MEDFORD        CLEAR     53  52  95 NE3       30.02F
MERRILL        NOT AVBL
$$

WIZ029-030-035-036-043>047-240800-
CENTRAL WISCONSIN

CITY           SKY/WX    TMP DP  RH WIND       PRES   REMARKS
WAUSAU         CLEAR     57  54  89 N5        30.01R
MOSINEE        CLEAR     55  54  94 N7        30.03R
MARSHFIELD     CLEAR     58  53  84 NE7       30.00S
STEVENS POINT  PTCLDY    53  52  98 NE5       30.01S
WAUPACA        CLOUDY    64  56  77 NE5       30.00R
WAUTOMA        CLOUDY    62  55  77 NE6       29.99S
WISC RAPIDS    CLEAR     60  54  80 NE7       30.01S
CAMP DOUGLAS   CLEAR     54  54 100 CALM      30.00R FOG
$$

WIZ011>013-019>022-031-037>040-048>050-240800-
NORTHEAST WISCONSIN

CITY           SKY/WX    TMP DP  RH WIND       PRES   REMARKS
ANTIGO         PTCLDY    53  53  99 NE6       30.03R
SHAWANO        CLOUDY    63  56  78 NE13      30.00R
OCONTO         CLOUDY    60  55  83 N5        29.98S
STURGEON BAY     N/A     61  56  83 N9        29.98R
GREEN BAY      CLOUDY    62  58  86 N8        29.97R
MANITOWOC      CLOUDY    63  58  83 N9        29.96R
APPLETON       CLOUDY    61  52  72 N12       29.97R
CLINTONVILLE   CLOUDY    61  54  77 NE9       29.99S
OSHKOSH        CLOUDY    63  56  78 N8        29.97R
$$

WIZ032>034-041-042-053>061-240800-
SOUTHWEST WISCONSIN

CITY           SKY/WX    TMP DP  RH WIND       PRES   REMARKS
LA CROSSE      CLOUDY    66  61  84 N7        29.99S
SPARTA         CLEAR     59  56  92 CALM      30.01R
VIROQUA        CLEAR     60  59  97 CALM      30.00S
BOSCOBEL       CLEAR     64  60  87 CALM      29.97R
PRAIRIE DU CHI CLEAR     64  58  80 CALM      29.97R
PLATTEVILLE    PTCLDY    64  64 100 N7        29.97R
$$

WIZ056-057-062-063-064-067-068-240800-
SOUTH CENTRAL WISCONSIN

CITY           SKY/WX    TMP DP  RH WIND       PRES   REMARKS
REEDSBURG      CLEAR     61  56  84 NE5       29.98R
BARABOO/DELLS  MOCLDY    60  55  83 NE6       29.98S
LONE ROCK      CLOUDY    65  58  78 NE5       29.97R
MINERAL POINT  PTCLDY    63  63 100 N6        29.97R
MADISON        CLEAR     60  57  89 N7        29.97R
MIDDLETON      CLEAR     62  58  87 NE6       29.98S
WATERTOWN      CLOUDY    63  60  90 NE5       29.96R
MONROE         MOCLDY    64  61  88 NE12      29.95R
JANESVILLE     CLOUDY    68  64  88 NE6       29.94R
$$

WIZ051-052-058>065-066-070>072-240800-
SOUTHEAST WISCONSIN

CITY           SKY/WX    TMP DP  RH WIND       PRES   REMARKS
MILWAUKEE      MOCLDY    65  60  84 N8        29.94R
WAUKESHA       CLOUDY    61  55  82 N5        29.97R
MILWAUKEE/TIMM CLOUDY    63  54  72 N8        29.96S
RACINE         CLOUDY    66  62  87 N10       29.96R
KENOSHA        CLOUDY    66  61  84 N6        29.94R
FOND DU LAC    CLOUDY    65  55  70 NE14      29.97R
SHEBOYGAN      CLOUDY    63  60  90 N8        29.96R
WEST BEND      CLOUDY    61  59  94 N8        29.96R
JUNEAU         CLOUDY    63  57  82 CALM      29.97S
$$

LSZ147-162-240800-
LAKE SUPERIOR

STATION/POSITION TIME  TEMP    WIND        PRES    WAVE
                       AIR SEA DIR/SP/G            HT/PER
                 (UTC) (F)     (DEG/KT/KT) (MB)    (FT/S)
W MID LAKE BUOY  0650   51 48  180/  2/  2 1017.7S   1
DEVILS ISLAND    0700   54     250/  8/  9 1018.1R
SAXON HARBOR     0640   58     160/  3/  4 1017.3S
$$

LMZ867-665-643>646-240800-
LAKE MICHIGAN

STATION/POSITION TIME  TEMP    WIND        PRES    WAVE
                       AIR SEA DIR/SP/G            HT/PER
                 (UTC) (F)     (DEG/KT/KT) (MB)    (FT/S)
CHAMBERS ISLAND  0640   63      20/ 18/ 22 1014.6R
S GREEN BAY BUOY 0700   64 72  360/ 17/ 21 1014.7
N MID LAKE BUOY  0650   62 66   40/ 16/ 19 1014.9R   4/ 6
NORTHPORT PIER   0640   62      30/ 12/ 17 1014.9R
KEWAUNEE LAKESHO 0654   62     360/  7/ 11 1013.8R
SHEBOYGAN LAKESH 0700   63     360/ 19/ 22 1013.7R
PORT WASHINGTON  0630   65     340/  4/  7 1014.6S
ATWATER BUOY     0509   67 68   10/ 14/ 21 1013.2R
MILWAUKEE LAKESH 0700   65     340/  8/ 10   N/A
S MID LAKE BUOY  0650   67 70   10/ 17/ 21 1012.3R   5/ 5
KENOSHA   LAKESH 0700   67      10/ 19/ 21 1013.5
$$

TC  - TEMPERATURE IN CELSIUS
VSB - VISIBILITY IN STATUTE MILES
WCI - WIND CHILL INDEX
HX  - HEAT INDEX





USA.gov is the U.S. government's official web portal to all federal, state and local government web resources and services.